Regional Weather Roundup
Issued by NWS

Home | Current Version | Previous Version | Text Only | Print | Product List | Glossary On
Versions: 1 2 3 4 5 6 7 8 9 10 11 12 13 14 15 16 17 18 19 20 21 22 23 24 25 26 27 28 29 30 31 32 33 34 35 36 37 38 39 40 41 42 43 44 45 46 47 48 49 50
337
ASUS45 KCYS 070010
RWRWY

WYOMING REGIONAL WEATHER ROUNDUP
NATIONAL WEATHER SERVICE CHEYENNE WY
500 PM MST SAT FEB 06 2016

NOTE:  "FAIR" INDICATES FEW OR NO CLOUDS BELOW 12,000 FEET
WITH NO SIGNIFICANT WEATHER AND/OR OBSTRUCTIONS TO VISIBILITY.

WYZ001-070100-
YELLOWSTONE NATIONAL PARK

CITY           SKY/WX    TMP DP  RH WIND       PRES   REMARKS
LK YELLOWSTONE   N/A     22  15  75 VRB6G17   30.24R WCI  14
6HR MIN TEMP:  22; 6HR MAX TEMP:  25;

W YELLOWSTONE  NOT AVBL

$$
WYZ002>013-054>058-071-098>099-070100-
NORTHERN WYOMING

CITY           SKY/WX    TMP DP  RH WIND       PRES   REMARKS
JACKSON        PTCLDY    34  21  60 S14G21    30.29R WCI  24
CODY           MOCLDY    41  12  30 SW21G33   30.07S
GREYBULL       FAIR      44  18  35 NW22G30   30.04S
6HR MIN TEMP:  33; 6HR MAX TEMP:  44;

WORLAND        FAIR      33  27  78 CALM      30.05S
6HR MIN TEMP:  30; 6HR MAX TEMP:  42;

SHERIDAN       CLOUDY    39  23  52 MISG      29.98F
6HR MIN TEMP:  38; 6HR MAX TEMP:  52;

BUFFALO        FAIR      36  24  62 N16G23    30.01R WCI  26
6HR MIN TEMP:  36; 6HR MAX TEMP:  54;

GILLETTE       FAIR      38  23  55 NW12      30.00R WCI  30
6HR MIN TEMP:  37; 6HR MAX TEMP:  42;

HULETT         CLOUDY    41  23  48 NW14G30   29.99R
NEWCASTLE      FAIR      37  23  56 NW3       29.98R

$$
WYZ014>020-022>026-101>103-070100-
CENTRAL WYOMING

CITY           SKY/WX    TMP DP  RH WIND       PRES   REMARKS
BIG PINEY      FAIR      34  20  56 NE3       30.29R
6HR MIN TEMP:  23; 6HR MAX TEMP:  35;

PINEDALE       FAIR      28  21  74 NW10      30.29S WCI  19
DUBOIS         FAIR      32  16  51 W22G29    30.17S WCI  19
LANDER         FAIR      38  21  50 CALM      30.09S
6HR MIN TEMP:  30; 6HR MAX TEMP:  43;

RIVERTON       FAIR      45  19  35 N7        30.12R
6HR MIN TEMP:  29; 6HR MAX TEMP:  48;

CASPER         FAIR      30  21  69 SW28G38   30.07F WCI  15
6HR MIN TEMP:  29; 6HR MAX TEMP:  32; 6HR PCP: TRACE;

DOUGLAS        FAIR      40  22  48 W35G41      N/A  WCI  28
6HR MIN TEMP:  39; 6HR MAX TEMP:  44;


$$
WYZ021-027>030-104>119-070100-
SOUTHERN WYOMING

CITY           SKY/WX    TMP DP  RH WIND       PRES   REMARKS
EVANSTON       FAIR      26  15  63 SW10      30.36S WCI  16
6HR MIN TEMP:  19; 6HR MAX TEMP:  31;

FORT BRIDGER   CLEAR     32  19  59 W25G31    30.35F WCI  19
ROCK SPRINGS   FAIR      31  18  58 W35G44    30.26S WCI  15
6HR MIN TEMP:  26; 6HR MAX TEMP:  33;

DIXON          FAIR      25  14  61 W8        30.38F WCI  17
RAWLINS        FAIR      25  16  68 SW35G45   30.19F HAZE    WCI   7
6HR MIN TEMP:  25; 6HR MAX TEMP:  29; 6HR PCP: TRACE;

SARATOGA       FAIR      32  19  59 SW28G33   30.23F WCI  18
LARAMIE        FAIR      34  16  47 W26       30.13S WCI  21
6HR MIN TEMP:  31; 6HR MAX TEMP:  37;

CHEYENNE       FAIR      43  17  35 NW16G23   30.07S
6HR MIN TEMP:  36; 6HR MAX TEMP:  44;

TORRINGTON     FAIR      39  23  52 SW13G25   30.02S WCI  31
6HR MIN TEMP:  39; 6HR MAX TEMP:  43;

PINE BLUFFS    FAIR      41  25  52 W10       30.05R

$$




USA.gov is the U.S. government's official web portal to all federal, state and local government web resources and services.